Greenwood, MS

11:08 AM CDT on July 21, 2017 (GMT -0500)
Greenwood-Leflore

Weather History for KGWO - October, 2011

Change the Weather History Date:

Tuesday, October 18, 2011

  Actual Average Record
Temperature  
Mean Temperature 61 °F 64 °F  
Max Temperature 72 °F 76 °F 90 °F (1972)
Min Temperature 49 °F 51 °F 30 °F (1948)
Degree Days  
Heating Degree Days 4 4  
Month to date heating degree days 34 47  
Since 1 July heating degree days 47 59  
Cooling Degree Days 0 3  
Month to date cooling degree days 48 71  
Year to date cooling degree days 2292 2118  
Growing Degree Days 10 (Base 50)    
Moisture  
Dew Point 53 °F    
Average Humidity 81    
Maximum Humidity 93    
Minimum Humidity 68    
Precipitation  
Precipitation T in 0.13 in 0.95 in (1988)
Month to date precipitation 0.54 2.24  
Year to date precipitation 27.58 39.97  
Sea Level Pressure  
Sea Level Pressure 29.76 in    
Wind  
Wind Speed 7 mph (NW)    
Max Wind Speed 20 mph    
Max Gust Speed 25 mph    
Visibility 10 miles    
Events Rain    
T = Trace of Precipitation, MM = Missing Value Source: NWS Daily Summary

Daily Weather History Graph

Daily Weather History Graph

Search for Another Location

Airport or City:

Trip Planner

Search our weather history database for the weather conditions in past years. The results will help you decide how hot, cold, wet, or windy it might be!

Date:

Astronomy

Oct. 18, 2011 Rise Set
Actual Time 7:07 AM CDT 6:23 PM CDT
Civil Twilight 6:42 AM CDT 6:48 PM CDT
Nautical Twilight 6:13 AM CDT 7:17 PM CDT
Astronomical Twilight 5:44 AM CDT 7:46 PM CDT
Moon 11:14 PM CDT (10/18) 12:47 PM CDT (10/18)
Length of Visible Light 12h 06m
Length of Day
11h 16m
Waning Gibbous, 64% of the Moon is Illuminated
Oct 18
Waning Gibbous
Oct 19
Last Quarter
Oct 26
New
Nov 2
First Quarter
Nov 10
Full

Hourly Weather History & Observations

Time (CDT) Temp. Dew Point Humidity Pressure Visibility Wind Dir Wind Speed Gust Speed Precip Events Conditions
12:53 AM 66.0 °F 55.0 °F 68% 29.75 in 10.0 mi SSW 4.6 mph - N/A   Clear
1:53 AM 64.9 °F 55.0 °F 70% 29.75 in 10.0 mi South 4.6 mph - N/A   Clear
2:53 AM 60.1 °F 55.9 °F 86% 29.74 in 10.0 mi Calm Calm - N/A   Clear
3:53 AM 55.4 °F 53.6 °F 94% 29.73 in 10.0 mi Calm Calm - N/A   Clear
4:53 AM 55.9 °F 53.1 °F 90% 29.73 in 10.0 mi Calm Calm - N/A   Clear
5:53 AM 59.0 °F 55.9 °F 90% 29.73 in 10.0 mi SSW 3.5 mph - N/A   Clear
6:23 AM 60.8 °F 57.2 °F 88% 29.74 in 10.0 mi WNW 4.6 mph - N/A   Mostly Cloudy
6:45 AM 62.6 °F 57.2 °F 82% 29.74 in 10.0 mi Calm Calm - N/A   Mostly Cloudy
6:53 AM 62.1 °F 57.9 °F 86% 29.73 in 10.0 mi Calm Calm - N/A   Mostly Cloudy
7:42 AM 62.6 °F 60.8 °F 94% 29.73 in 10.0 mi SSW 3.5 mph - N/A   Mostly Cloudy
7:53 AM 63.0 °F 60.1 °F 90% 29.73 in 10.0 mi SSW 3.5 mph - N/A   Overcast
8:53 AM 66.0 °F 61.0 °F 84% 29.73 in 10.0 mi South 6.9 mph - N/A   Scattered Clouds
9:53 AM 68.0 °F 61.0 °F 78% 29.71 in 10.0 mi SSE 6.9 mph - N/A   Mostly Cloudy
10:06 AM 66.2 °F 60.8 °F 83% 29.70 in 10.0 mi WSW 3.5 mph - N/A   Mostly Cloudy
10:34 AM 68.0 °F 62.6 °F 83% 29.71 in 10.0 mi West 3.5 mph - N/A   Mostly Cloudy
10:43 AM 69.8 °F 62.6 °F 78% 29.71 in 10.0 mi West 4.6 mph - N/A   Mostly Cloudy
10:50 AM 69.8 °F 60.8 °F 73% 29.70 in 10.0 mi Calm Calm - N/A   Scattered Clouds
10:53 AM 69.1 °F 61.0 °F 75% 29.70 in 10.0 mi Variable 3.5 mph - N/A   Partly Cloudy
11:22 AM 71.6 °F 62.6 °F 73% 29.70 in 10.0 mi Calm Calm - N/A   Mostly Cloudy
11:53 AM 71.6 °F 60.8 °F 69% 29.70 in 10.0 mi Calm Calm - N/A   Overcast
12:53 PM 64.0 °F 55.9 °F 75% 29.70 in 10.0 mi NNW 17.3 mph 23.0 mph N/A   Mostly Cloudy
1:00 PM 62.6 °F 55.4 °F 77% 29.71 in 10.0 mi NNW 15.0 mph 25.3 mph N/A   Mostly Cloudy
1:53 PM 55.9 °F 48.9 °F 77% 29.73 in 10.0 mi NNW 11.5 mph - N/A   Overcast
2:53 PM 53.1 °F 48.0 °F 83% 29.74 in 10.0 mi North 13.8 mph 21.9 mph N/A   Overcast
3:53 PM 52.0 °F 48.0 °F 86% 29.76 in 10.0 mi NNW 12.7 mph 24.2 mph N/A   Overcast
4:53 PM 52.0 °F 46.9 °F 83% 29.78 in 10.0 mi North 11.5 mph 24.2 mph N/A   Overcast
5:20 PM 50.0 °F 46.4 °F 87% 29.79 in 8.0 mi NNW 10.4 mph 21.9 mph 0.00 in Rain Light Rain
5:53 PM 50.0 °F 46.0 °F 86% 29.81 in 5.0 mi NNW 12.7 mph 24.2 mph 0.00 in Rain Light Rain
6:53 PM 50.0 °F 46.0 °F 86% 29.83 in 10.0 mi NNW 11.5 mph 20.7 mph 0.00 in   Overcast
7:29 PM 48.2 °F 46.4 °F 93% 29.85 in 7.0 mi NNW 10.4 mph 17.3 mph 0.00 in Rain Light Rain
7:44 PM 48.2 °F 46.4 °F 93% 29.85 in 10.0 mi NW 9.2 mph 16.1 mph 0.00 in   Overcast
7:53 PM 50.0 °F 46.4 °F 87% 29.85 in 10.0 mi NNW 9.2 mph 21.9 mph N/A   Overcast
8:49 PM 50.0 °F 42.8 °F 76% 29.85 in 10.0 mi North 17.3 mph 25.3 mph N/A   Overcast
8:53 PM 50.0 °F 43.0 °F 77% 29.86 in 10.0 mi NNW 15.0 mph 25.3 mph N/A   Overcast
9:53 PM 50.0 °F 42.1 °F 74% 29.86 in 10.0 mi NNW 11.5 mph 18.4 mph N/A   Overcast
10:53 PM 50.0 °F 42.1 °F 74% 29.86 in 10.0 mi NNW 3.5 mph - N/A   Overcast
11:53 PM 50.0 °F 43.0 °F 77% 29.84 in 10.0 mi NNW 4.6 mph - N/A   Overcast